Regional Weather Roundup
Issued by NWS San Diego, CA

Home | Current Version | Previous Version | Text Only | Print | Product List | Glossary On
Versions: 1 2 3 4 5 6 7 8 9 10 11 12 13 14 15 16 17 18 19 20 21 22 23 24 25 26 27 28 29 30 31 32 33 34 35 36 37 38 39 40 41 42 43 44 45 46 47 48 49 50
000
ASUS46 KSGX 232311
RWRSGX

SAN DIEGO HOURLY WEATHER ROUNDUP
NATIONAL WEATHER SERVICE SAN DIEGO CA
400 PM PDT THU MAY 23 2019

NOTE: "FAIR" INDICATES FEW OR NO CLOUDS BELOW 12,000 FEET WITH NO
SIGNIFICANT WEATHER AND/OR OBSTRUCTIONS TO VISIBILITY.

CAZ042-043-060-061-PZZ750-775-240000-

GREATER SAN DIEGO AREA

CITY           SKY/WX    TMP DP  RH WIND       PRES   REMARKS
SAN DIEGO AP   MOSUNNY   65  50  58 SW10      30.03F
NATIONAL CITY    N/A     68  56  66 NE5       30.02F
CHULA VISTA      N/A     67  53  61 W5        29.93F
IMPERIAL BEACH PTSUNNY   64  52  64 W9        30.02F
BROWN FIELD    PTSUNNY   67  48  50 SW8G18    30.00F
MIRAMAR MCAS   SUNNY     69  49  48 SW12      30.00F
MONTGOMERY FLD MOSUNNY   65  48  54 W13       30.01F
GILLESPIE FLD  PTSUNNY   64  48  55 W8        30.01F

$$

NORTH SAN DIEGO COUNTY

CITY           SKY/WX    TMP DP  RH WIND       PRES   REMARKS
CAMP PENDLETON PTSUNNY   64  51  62 W9        30.01F
OCEANSIDE AP   NOT AVBL
OCEANSIDE HBR    N/A     62  55  76 CALM      30.04F
VISTA            N/A     64  53  67 SW3       29.98F
CARLSBAD       MOSUNNY   64  50  60 SW10      30.00F
DEL MAR          N/A     62  54  74 W2        30.02F
LA JOLLA SCRIP   N/A     63  55  75 SW2       30.01F
FALLBROOK      CLOUDY    61  48  63 SW9       30.01F
ESCONDIDO        N/A     64  50  61 SW6       30.01F
SAN MARCOS       N/A     63  53  69 W7        30.04F
POWAY            N/A     67  51  57 CALM      30.03F

$$

EAST SAN DIEGO COUNTY

CITY           SKY/WX    TMP DP  RH WIND       PRES   REMARKS
RAMONA         CLOUDY    62  48  60 W8        30.01F
SANTEE LAKES     N/A     65  52  63 S6        29.97F
LA MESA          N/A     65  51  60 SW5       29.96F
JAMUL            N/A     62  52  69 CALM      30.02F
MT. LAGUNA OBS   N/A     41  41  99 SW6       30.05F
CAMPO            N/A     56  46  69 W10       29.97F

$$

ORANGE COUNTY AND THE LOS ANGELES BASIN

CITY           SKY/WX    TMP DP  RH WIND       PRES   REMARKS
JOHN WAYNE AP  PTSUNNY   65  50  58 SW8       30.01S
LAGUNA BEACH     N/A     70  55  59 SW1       30.00S
LAKE FOREST FR   N/A     59  48  66 S1        29.90F
HUNTINGTON BCH   N/A     66  56  70 SW3       30.01S
LOS ALAMITOS   PTSUNNY   66  52  59 VRB5      30.00S
FULLERTON      CLOUDY    63  51  65 MISG      29.99S
LONG BEACH     PTSUNNY   65  49  56 S9        30.00F
L.A. AP        CLOUDY    62  50  64 SW9       30.00S
L.A. DOWNTOWN  CLOUDY    61  51  70 CALM      29.99F

$$

THE INLAND EMPIRE

CITY           SKY/WX    TMP DP  RH WIND       PRES   REMARKS
CORONA         CLOUDY    63  50  62 VRB6      30.01S
CHINO          PTSUNNY   60  52  74 SW9       30.02S
ONTARIO        LGT RAIN  59  55  87 N7        30.01S
SAN BERNARDINO DRIZZLE   57  52  82 NW5       30.01
RIVERSIDE AP   CLOUDY    60  50  69 NW5       30.00F
MORENO VALLEY    N/A     55  54  96 S3        28.12S
MARCH ARB      CLOUDY    58  53  82 S10       30.00S
PERRIS           N/A     57  53  88 SW8       29.98F
HEMET EAST       N/A     53  49  86 CALM      30.03F
FRENCH VALLEY  CLOUDY    59  48  67 S10       30.01F
TEMECULA         N/A     59  55  84 SW7       30.00F

$$

SAN BERNARDINO AND RIVERSIDE COUNTY MOUNTAINS

CITY           SKY/WX    TMP DP  RH WIND       PRES   REMARKS
BIG BEAR AP    CLOUDY    39  36  87 W9G17     30.00S WCI  33
ANGELUS OAKS     N/A     40  38  93 W1        30.00F

$$

SOUTHERN DESERT INCLUDING THE COACHELLA VALLEY

CITY           SKY/WX    TMP DP  RH WIND       PRES   REMARKS
PALM SPRINGS   MOSUNNY   74  47  38 N15G24    29.92F
THOUSAND PALMS   N/A     75  49  39 N7        29.88F
PALM DESERT      N/A     75  46  34 N5          N/A
THERMAL        SUNNY     81  43  26 NW12G21   29.87F
BORREGO AP     FAIR      73  43  33 W24       29.93F
BLYTHE         CLOUDY    77  38  24 S10       29.89F
IMPERIAL AP    PTSUNNY   78  41  26 NW5G16    29.88F
EL CENTRO NAS  PTSUNNY   80  38  22 W12G18    29.90F
YUMA AZ        SUNNY     78  36  21 S9        29.89F
MEXICALI       MOSUNNY   81  30  16 NE3       29.89F

$$

UPPER DESERT

CITY           SKY/WX    TMP DP  RH WIND       PRES   REMARKS
VICTORVILLE AP   N/A    N/A N/A N/A S20G32    29.90F
HESPERIA         N/A     56  45  67 SW12      29.98S
APPLE VALLEY     N/A     56  45  66 N26       29.96F
PALMDALE       CLOUDY    61  43  51 SW21G32   29.93R
LANCASTER      PTSUNNY   58  46  64 SW23G35   29.93S
EDWARDS AFB    PTSUNNY   63  45  51 SW26G36   29.88R
DAGGETT        CLOUDY    63  47  55 SE8       29.88S
29 PALMS N     PTSUNNY   67  42  40 SW21      29.96F
NEEDLES        CLOUDY    75  38  26 SW13      29.90F

$$

REGIONAL REPORTS

CITY           SKY/WX    TMP DP  RH WIND       PRES   REMARKS
SANTA BARBARA  PTSUNNY   62  50  64 S8        29.97S
SANDBERG       LGT RAIN  46  44  93 S18G29    29.97F VSB<1/4
LAS VEGAS NV   PTSUNNY   66  41  40 S16G25    29.85R
PHOENIX AZ     MOSUNNY   74  35  24 VRB5      29.93F
TIJUANA        PTSUNNY   64  50  59 NW10      30.03F
ENSENADA NW      N/A     64  32  30 W14       29.97F

$$

OFFSHORE ISLANDS

CITY           SKY/WX    TMP DP  RH WIND       PRES   REMARKS
CATALINA ARPT  CLOUDY    57  50  77 SW5       30.01S
SAN CLEMENTE I PTSUNNY   63  53  70 SW6       30.01F
SAN NICOLAS IS PTSUNNY   62  49  62 SW12      29.99S

$$

MARINE AND OFFSHORE BUOY REPORTS

STATION/POSITION SKY/WX   TEMP    WIND        PRES    VSBY  SWELL
                          AIR SEA DIR/SP/G                  HT/PER/DIR
                          (F)     (DEG/KT/KT) (MB)    (MI)  (FT/S/D)
TANNER BANKS               59 60  220/  6/  8 1016.0F        10/290/11
S CLEMENTE BASIN           61 63  230/  6/  8 1016.3F         8/270/11
SAN NICOLAS IS.               59                N/A           7/310/11
SO. S. ROSA ISLA           58 57  280/  4/  4 1015.0F        10/290/11
W. S. BARBARA CH                              1014.8F        11/290/11
M. S. BARBARA CH           58 56   70/  2/  4 1015.5F         7/270/11
S. MONICA BASIN            59 60  190/  8/ 10 1015.5S         5/180/15
S PEDRO CHANNEL               59                N/A           3/270/12
CMP PENDLETON NS              61                N/A           3/210/17
OCEANSIDE OFFSHR              62                N/A           3/190/18
TORREY PINES OTR              62                N/A           3/200/17
SAN DIEGO BAY                 66              1016.1F
IMPERIAL BEACH                61                N/A           3/280/11
POINT LOMA SOUTH              63                N/A           5/200/15

$$




USA.gov is the U.S. government's official web portal to all federal, state and local government web resources and services.